Wind_Speed
23 23 20 17 15 15 13 13 13 11 13 16 16 14 14 16 17 16 16 16 16 14 14 14 14 14 14 15 15 16 16 16 17 17 16 16 18 17 16 15 13 12 11 10
24 21 18 18 17 18 17 16 14 13 16 17 17 15 16 18 17 17 17 16 15 14 14 13 13 14 13 14 15 15 14 14 15 16 16 17 18 18 17 15 14 12 11 10
22 18 19 19 19 19 18 17 17 18 17 18 17 15 16 17 16 15 16 16 16 15 13 12 13 13 14 14 14 15 14 13 14 15 15 16 17 18 17 16 15 14 12 11
22 20 20 20 20 20 19 18 17 17 16 16 15 15 15 16 16 14 14 14 15 14 13 12 13 13 13 13 14 14 13 13 15 15 14 15 16 17 17 17 16 15 14 12
21 21 22 21 20 19 19 17 17 17 18 18 17 16 16 17 16 15 14 14 15 14 14 13 13 12 12 13 13 13 13 13 14 15 15 15 15 16 18 18 17 15 14 13
21 21 22 21 20 19 19 18 17 18 17 19 18 17 15 17 16 16 14 15 15 14 14 14 14 12 11 11 11 11 12 13 15 15 15 15 16 16 17 18 18 16 15 14
22 22 21 20 20 20 20 19 17 17 17 17 15 16 16 18 17 16 15 16 16 15 15 14 13 12 11 10 9 10 11 13 14 15 15 15 16 17 18 18 18 17 16 15
20 21 21 21 21 20 20 20 19 17 16 15 13 16 16 16 17 17 17 18 17 16 15 13 12 12 11 10 10 10 12 14 14 15 15 17 18 18 18 18 18 17 17 15
19 19 20 20 20 21 20 21 20 18 16 16 14 14 16 15 16 17 18 18 17 16 15 13 12 12 12 11 11 11 12 13 15 15 16 17 18 18 18 18 18 16 17 16
17 17 19 21 21 22 21 20 20 22 20 17 14 14 14 13 16 17 18 17 17 16 14 13 12 11 11 11 11 12 12 11 12 14 15 16 17 17 18 18 18 17 17 16
21 19 19 21 22 20 22 22 22 21 21 18 16 15 15 16 18 18 19 18 17 16 15 13 13 12 12 11 11 11 11 12 12 13 14 15 15 16 17 18 18 18 17 17
25 22 21 21 21 20 22 23 24 25 23 23 21 18 19 18 20 20 18 18 18 16 15 14 13 12 12 11 12 11 12 12 13 13 14 15 15 16 17 19 18 19 18 17
28 27 24 22 21 22 23 23 24 25 24 23 22 21 19 19 21 20 18 19 18 17 16 14 13 13 12 12 12 12 11 12 14 14 14 15 16 16 17 18 19 19 18 18
29 29 26 23 23 23 23 24 25 24 24 23 22 24 23 22 21 19 18 18 17 17 16 15 14 14 13 13 12 12 12 12 13 14 14 15 15 16 17 18 17 18 18 18
29 29 29 27 25 24 24 23 24 25 24 24 23 24 26 25 23 22 20 19 18 18 17 16 15 14 14 13 13 12 12 13 13 14 14 15 15 16 18 17 17 18 18 18
31 29 29 28 25 23 23 22 22 22 24 25 25 26 27 26 24 23 22 21 20 18 17 16 15 15 14 13 13 12 13 13 13 14 14 15 15 16 17 18 17 17 17 17
30 29 29 27 25 23 23 22 23 25 26 25 26 26 26 24 22 21 21 21 20 19 18 17 16 15 15 14 13 13 14 14 14 14 15 16 17 17 17 18 18 18 17 17
30 29 29 28 28 26 24 23 23 24 24 24 26 27 27 25 22 21 21 21 20 19 18 17 16 14 14 14 14 14 14 14 14 14 15 16 17 17 17 17 17 18 18 17
30 29 28 28 27 25 23 22 21 22 24 26 26 27 27 24 23 23 23 22 19 19 18 17 16 16 15 15 15 15 14 15 15 15 16 16 16 16 16 17 17 17 17 18
27 28 28 28 27 26 25 23 22 23 24 25 25 25 25 24 24 24 22 21 20 19 18 18 16 16 16 16 16 15 15 15 16 16 16 17 16 16 16 16 16 17 17 18
27 27 27 27 27 26 24 23 23 24 25 25 25 25 25 25 25 24 22 21 20 19 19 19 18 17 17 17 18 17 16 16 16 16 16 17 17 17 17 17 17 18 18 18
26 26 26 27 27 26 25 24 23 25 25 25 25 24 24 24 24 23 22 21 20 20 20 19 19 18 18 19 18 18 17 17 17 17 17 17 17 17 17 17 18 19 19 19
26 26 25 27 28 26 25 25 24 24 23 23 24 24 24 24 23 23 23 22 21 21 21 20 20 20 20 19 19 19 19 18 17 17 17 17 17 18 18 18 19 19 19 19
25 27 28 28 28 26 26 26 24 22 23 22 23 23 23 23 23 23 23 22 21 21 21 21 20 20 20 19 19 19 19 19 19 18 18 18 18 18 18 19 19 19 20 20
24 24 26 28 26 24 24 24 24 23 23 23 23 23 23 23 23 23 23 23 23 22 21 21 21 20 20 20 19 19 19 19 19 19 19 19 19 19 19 20 20 21 22 22
22 24 25 26 25 26 25 23 23 22 23 23 23 23 22 23 23 23 23 23 22 22 22 22 22 21 21 21 21 20 20 20 21 21 21 21 21 22 22 22 22 24 25 25
Wind_Direction
252 251 250 248 244 241 233 241 254 253 248 257 261 258 257 268 276 282 284 285 287 285 283 281 278 276 275 266 263 260 255 248 241 241 239 234 228 227 227 225 222 225 223 220
248 247 245 238 236 236 233 232 236 236 241 252 259 259 256 255 265 274 283 286 290 288 286 285 279 277 271 263 262 260 254 249 239 238 237 233 229 228 227 223 223 223 219 220
245 241 238 237 234 233 234 233 230 233 239 252 263 263 260 260 264 274 284 288 289 286 284 283 280 276 269 264 259 257 252 242 237 239 238 233 228 226 225 223 223 221 216 216
237 231 235 237 236 232 234 231 229 232 238 246 259 264 264 266 271 277 289 288 287 284 284 283 280 277 269 264 257 254 248 241 238 238 236 231 229 228 225 221 218 217 216 215
233 230 231 234 234 230 230 228 228 232 237 238 244 254 261 270 277 284 287 286 285 283 282 280 281 275 266 262 255 253 246 240 238 238 236 232 232 227 224 218 216 215 212 212
225 232 234 232 230 226 225 224 230 232 233 239 240 245 255 268 275 277 279 281 284 283 282 280 277 274 268 262 254 250 242 240 239 237 235 235 230 224 220 217 217 214 211 213
222 224 232 229 225 224 222 221 227 233 238 242 238 240 247 262 269 272 275 277 280 280 282 283 275 269 266 260 253 248 245 240 238 235 233 233 223 219 218 218 216 213 212 212
226 222 225 231 225 222 224 219 222 232 245 250 240 237 242 256 268 273 274 278 279 279 282 283 278 266 262 258 255 252 249 245 239 235 233 228 222 220 218 217 214 212 211 211
223 224 224 230 225 216 221 220 222 232 243 252 249 242 243 247 259 270 276 277 276 278 280 283 280 268 260 257 257 257 254 248 240 234 229 222 221 220 217 213 208 207 210 212
208 221 219 223 225 220 218 224 222 227 240 251 257 258 252 255 267 273 274 275 277 278 279 280 279 274 266 262 256 253 251 247 236 228 226 221 219 214 209 209 208 210 211 212
204 212 214 219 227 223 220 219 223 230 232 238 246 248 249 257 262 268 271 275 278 279 277 278 276 271 268 260 255 247 244 240 231 224 222 220 218 211 207 208 211 211 212 214
206 209 214 219 228 222 222 220 222 229 231 230 241 247 247 256 264 264 264 273 275 275 274 276 273 267 264 259 250 243 242 238 230 226 225 221 216 214 212 212 214 212 213 217
208 208 213 217 222 223 219 223 224 230 234 234 241 251 251 255 261 262 266 271 270 270 272 271 268 265 263 258 253 247 245 238 229 225 224 219 217 216 214 214 213 213 216 221
212 212 210 218 222 224 219 223 226 230 237 239 238 247 249 250 257 261 265 269 267 267 267 266 264 263 261 255 250 247 242 232 225 222 220 216 216 214 212 212 213 215 219 222
213 216 214 217 224 225 225 228 230 231 237 242 239 244 249 247 253 258 263 267 266 266 265 262 259 259 255 250 246 243 235 228 222 220 218 215 214 213 211 212 215 219 222 226
215 214 216 221 226 228 231 233 235 238 240 245 244 246 248 248 253 258 260 261 263 264 264 262 262 257 249 243 240 234 227 223 221 219 216 213 213 213 213 217 219 223 226 230
221 219 219 223 228 232 234 240 241 241 240 241 243 246 248 248 253 251 255 260 263 264 261 259 259 254 244 237 234 229 224 221 220 218 215 215 214 214 217 220 223 227 231 237
222 224 223 223 228 234 234 236 240 242 241 241 243 244 245 247 251 254 256 257 259 259 256 253 252 247 240 235 233 231 223 221 220 217 214 214 215 216 222 224 226 230 234 240
222 225 226 224 229 234 232 234 237 240 241 242 241 242 244 244 247 251 254 256 256 255 252 251 249 242 238 235 234 231 224 220 219 218 217 216 217 221 225 227 229 234 239 244
225 226 227 228 228 231 232 232 234 239 241 241 242 243 245 246 245 247 252 253 252 250 247 247 245 240 237 235 233 230 226 223 222 222 221 222 224 226 229 232 236 239 243 249
228 228 228 228 231 235 233 234 233 236 240 242 244 246 246 245 245 247 250 249 247 247 244 244 243 239 237 236 232 229 229 227 226 225 224 226 228 231 235 238 241 244 249 254
227 230 229 232 234 235 237 237 233 238 243 245 245 246 246 247 246 246 247 246 245 244 242 242 242 239 237 236 232 230 228 227 227 226 227 229 232 236 242 244 247 250 253 257
222 226 231 234 235 237 238 239 241 240 243 244 245 245 247 247 244 243 242 243 243 243 242 243 242 238 235 236 235 231 230 229 230 231 231 233 236 240 244 247 250 252 255 259
221 225 229 233 235 237 240 240 242 241 243 243 245 245 245 245 245 243 241 240 240 239 241 241 239 236 234 234 233 232 231 232 233 233 235 239 242 245 247 249 251 255 258 261
223 226 232 234 236 238 236 238 241 243 242 242 243 245 245 246 246 244 241 240 239 239 238 236 235 233 232 233 233 233 234 234 236 237 239 242 244 246 249 252 255 258 260 263
230 229 231 235 237 239 239 241 240 241 242 244 245 244 245 247 248 245 240 239 240 241 238 235 233 232 233 235 237 238 238 238 240 243 244 246 249 251 254 257 259 262 263 266
Height
5829 5832 5835 5837 5839 5842 5844 5848 5849 5851 5851 5851 5851 5851 5851 5849 5849 5848 5847 5846 5844 5843 5843 5842 5842 5842 5842 5842 5843 5844 5845 5847 5849 5852 5854 5856 5860 5862 5865 5867 5869 5871 5873 5874
5824 5827 5831 5832 5835 5838 5840 5843 5846 5848 5849 5848 5848 5848 5848 5846 5845 5845 5844 5843 5842 5841 5840 5839 5839 5838 5839 5839 5840 5841 5842 5844 5847 5849 5851 5854 5857 5860 5863 5865 5868 5870 5871 5873
5819 5824 5825 5827 5830 5833 5836 5839 5842 5844 5845 5845 5845 5845 5843 5842 5842 5841 5841 5841 5840 5838 5837 5837 5836 5836 5836 5836 5837 5838 5840 5841 5844 5846 5849 5851 5854 5857 5860 5863 5866 5868 5870 5872
5813 5817 5820 5823 5826 5829 5832 5835 5837 5839 5841 5842 5843 5842 5841 5839 5839 5838 5838 5838 5837 5836 5835 5834 5834 5834 5833 5834 5834 5836 5838 5839 5841 5843 5846 5848 5851 5854 5857 5860 5863 5866 5868 5871
5809 5813 5816 5819 5822 5825 5828 5831 5833 5835 5836 5838 5838 5839 5837 5836 5836 5836 5835 5835 5834 5833 5833 5832 5832 5831 5831 5831 5832 5833 5835 5837 5839 5841 5844 5846 5849 5851 5854 5858 5861 5864 5866 5869
5805 5808 5811 5815 5818 5821 5824 5827 5829 5830 5832 5833 5834 5835 5835 5834 5833 5832 5832 5832 5832 5830 5830 5830 5829 5829 5829 5829 5830 5831 5832 5835 5837 5839 5841 5843 5846 5848 5852 5855 5858 5861 5865 5868
5800 5803 5807 5810 5813 5817 5820 5823 5826 5827 5828 5828 5830 5831 5831 5831 5830 5829 5829 5829 5829 5829 5828 5827 5827 5826 5827 5827 5828 5829 5831 5832 5834 5836 5838 5840 5843 5846 5849 5852 5856 5859 5863 5866
5795 5800 5803 5806 5809 5813 5815 5819 5822 5824 5825 5825 5825 5826 5827 5827 5827 5826 5827 5827 5826 5826 5825 5825 5824 5824 5825 5826 5826 5827 5829 5830 5831 5833 5835 5837 5840 5843 5847 5850 5853 5857 5860 5863
5792 5796 5800 5802 5805 5809 5812 5814 5819 5820 5820 5820 5821 5823 5821 5821 5823 5824 5823 5824 5823 5823 5823 5822 5822 5822 5823 5823 5824 5825 5826 5827 5828 5830 5832 5834 5837 5840 5844 5847 5851 5854 5858 5861
5789 5793 5796 5798 5801 5804 5808 5811 5814 5816 5816 5817 5819 5819 5817 5818 5820 5821 5820 5820 5820 5820 5820 5820 5820 5820 5820 5821 5822 5823 5823 5824 5825 5827 5829 5831 5834 5837 5841 5845 5849 5852 5856 5859
5784 5788 5792 5794 5796 5800 5803 5807 5809 5811 5813 5816 5816 5818 5814 5815 5816 5817 5817 5817 5817 5817 5816 5816 5817 5817 5818 5818 5819 5820 5821 5822 5823 5825 5827 5829 5832 5835 5838 5842 5846 5850 5853 5857
5779 5784 5786 5790 5793 5795 5798 5801 5805 5807 5808 5810 5811 5814 5811 5811 5812 5812 5813 5814 5814 5814 5813 5813 5814 5814 5815 5815 5816 5817 5818 5819 5821 5823 5825 5827 5829 5832 5836 5840 5844 5847 5851 5854
5773 5778 5782 5785 5790 5791 5793 5796 5798 5801 5803 5805 5808 5811 5808 5807 5807 5807 5808 5810 5810 5811 5811 5811 5811 5811 5812 5812 5813 5814 5815 5817 5818 5820 5822 5824 5827 5830 5833 5837 5840 5844 5848 5851
5769 5772 5777 5781 5783 5784 5786 5790 5793 5796 5798 5801 5803 5804 5803 5803 5803 5803 5804 5806 5806 5807 5808 5808 5808 5809 5809 5809 5810 5812 5812 5814 5816 5818 5820 5822 5825 5827 5831 5834 5838 5841 5845 5848
5762 5767 5770 5773 5775 5778 5781 5784 5788 5790 5793 5795 5797 5798 5797 5798 5799 5799 5800 5801 5802 5803 5804 5805 5805 5806 5806 5806 5807 5809 5810 5811 5813 5815 5818 5820 5823 5825 5829 5832 5836 5839 5842 5845
5756 5760 5765 5767 5771 5773 5776 5779 5782 5785 5788 5789 5791 5792 5790 5791 5793 5795 5796 5797 5798 5799 5800 5800 5801 5802 5802 5803 5804 5806 5808 5809 5811 5813 5816 5818 5821 5824 5827 5830 5834 5836 5839 5842
5750 5755 5759 5763 5766 5767 5771 5774 5776 5779 5781 5783 5784 5785 5785 5785 5787 5789 5791 5793 5794 5795 5796 5797 5798 5798 5798 5800 5802 5803 5805 5807 5809 5811 5814 5816 5819 5822 5825 5827 5831 5834 5836 5839
5745 5748 5753 5757 5761 5763 5767 5768 5770 5772 5774 5776 5778 5778 5779 5780 5783 5785 5786 5787 5789 5790 5791 5792 5793 5794 5795 5797 5799 5801 5803 5805 5807 5809 5812 5814 5817 5820 5822 5825 5828 5831 5833 5835
5738 5743 5747 5751 5754 5757 5760 5762 5765 5766 5768 5769 5770 5771 5773 5775 5779 5780 5781 5783 5784 5785 5787 5788 5790 5791 5793 5795 5796 5798 5800 5802 5805 5807 5809 5812 5815 5817 5820 5822 5825 5827 5829 5831
5732 5737 5742 5745 5747 5751 5755 5756 5758 5762 5762 5763 5764 5767 5769 5771 5774 5776 5777 5778 5780 5781 5782 5784 5786 5788 5790 5791 5793 5796 5798 5800 5802 5804 5806 5809 5812 5814 5816 5819 5821 5823 5825 5826
5727 5731 5735 5738 5741 5743 5746 5748 5752 5756 5757 5758 5760 5762 5764 5766 5768 5771 5772 5774 5775 5777 5778 5780 5782 5784 5786 5787 5789 5792 5794 5796 5799 5801 5803 5806 5808 5810 5812 5815 5817 5819 5820 5822
5722 5726 5730 5733 5735 5739 5739 5742 5745 5748 5750 5752 5755 5756 5758 5760 5763 5765 5767 5768 5770 5772 5774 5775 5778 5780 5781 5783 5785 5788 5791 5793 5795 5797 5800 5802 5804 5806 5809 5810 5812 5814 5815 5816
5716 5721 5724 5728 5731 5732 5734 5736 5739 5741 5744 5746 5748 5751 5753 5755 5757 5759 5761 5763 5765 5767 5769 5771 5773 5776 5778 5780 5782 5784 5787 5789 5792 5794 5796 5799 5801 5803 5805 5807 5808 5809 5811 5812
5709 5714 5718 5720 5723 5726 5728 5731 5733 5736 5738 5741 5743 5745 5747 5749 5752 5754 5756 5758 5761 5763 5765 5767 5769 5771 5774 5776 5778 5780 5783 5786 5788 5790 5793 5794 5796 5798 5800 5802 5803 5804 5805 5806
5704 5708 5711 5715 5718 5720 5722 5725 5727 5731 5733 5736 5738 5739 5742 5744 5746 5748 5751 5753 5756 5758 5760 5762 5765 5767 5770 5772 5774 5776 5779 5782 5784 5786 5788 5790 5791 5793 5795 5796 5797 5798 5799 5800
5700 5702 5707 5709 5712 5715 5717 5720 5723 5726 5728 5730 5733 5734 5736 5739 5741 5743 5745 5748 5751 5753 5755 5758 5760 5763 5765 5768 5770 5773 5775 5777 5779 5781 5783 5785 5786 5788 5789 5790 5791 5792 5792 5793